Tracking 28790 objects as of 19-Apr-2024
HD Live streaming from Space Station
objects crossing your sky now

CZ-6A DEB

Track CZ-6A DEB now!
10-day predictions


NORAD ID: 54445
Int'l Code: 2022-151FV
Perigee: 755.8 km
Apogee: 836.4 km
Inclination: 98.8 °
Period: 100.6 minutes
Semi major axis: 7167 km
RCS: Unknown
Launch date: November 11, 2022
Source: People's Republic of China (PRC)
Launch site: Taiyaun Space Center, China (TSC)

Note: This is SATELLITE DEBRIS
Your satellite tracking list
Your tracking list is empty




NASA's NSSDC Master Catalog

Two Line Element Set (TLE):
1 54445U 22151FV  24110.04950808  .00002437  00000-0  93025-3 0  9993
2 54445  98.8183 132.9566 0056186 141.4381 219.0835 14.30832956 74641
Source of the keplerian elements: AFSPC